GUOWANG

operational
NORAD ID: 66919 Country: Unknown
LEOCIRCULAR

About GUOWANG

Description loading...

Live Position

Loading 3D Globe...

Upcoming Passes

Altitude History

Altitude vs Time

uPlot chart will show altitude changes over time

Two-Line Element Set

1 66919U 25285E 25340.94265942 -.00000139 00000-0 81603-5 0 9995
2 66919 50.0062 140.9430 0008024 272.1342 87.8645 14.06218665 98
Epoch: Dec 6, 2025 • Age: 7 hours

Current Status

Altitude 874.6 km
Velocity 7.42 km/s
Sub-Earth Point 19.27°N, 3.02°W
Type other

Large Constellations

Loading constellations...